Starlink 11535

operational
NORAD ID: 62595 Int'l Des: 2025-008 Owner: SPXS Country: US Constellation: starlink
LEOCIRCULAR

Über Starlink 11535

Beschreibung wird geladen...

Live-Position

3D-Globus wird geladen...

Nächste Überflüge

Höhenverlauf

Altitude vs Time

uPlot chart will show altitude changes over time

Zweizeiliger Elementsatz

1 62595U 25008J 25352.78050960 .00260091 00000-0 19630-2 0 9993
2 62595 43.0000 253.4698 0001640 245.5970 114.4727 15.70896961 54418
Epoch: 18. Dez. 2025 • Age: 10 hours

Aktueller Status

Höhe 355.1 km
Geschwindigkeit 7.70 km/s
Subsatellitenpunkt 0.28°N, 87.07°W
Startdatum 13. Jan. 2025
Alter 0.9 years
Typ internet

Technische Details

Klassifizierung Payload
Masse 960.00 kg
Trockenmasse 910.00 kg
Gesamtmasse 960.00 kg
Länge 0.30 m
Durchmesser 4.10 m
Spannweite 29.00 m
Form Box + pan
Hersteller SPXS
Bus-Typ Starlink V2MD
Phasenstatus In Orbit
Besitzer/Staat SPXS/US

Große Konstellationen

Loading constellations...